ATLAS CENTAUR 2 DEB, 701

Orbit data source: Space-Track

ATLAS CENTAUR 2 DEB, 701 is space debris in LEO originally from a launch on Wed, 27 Nov 1963 UTC launched from the Air Force Eastern Test Range (AFETR). Debris objects in space refer to the collection of defunct objects orbiting the Earth. Examples of debris include non-operational satellites, rocket bodies, and fragments generated from explosions, collisions, or faulty payload assembly.

Loading next visibility...
Identifier
701, 1963-047G
Orbit
LEO
Last TLE update
13 hours ago
Origin
Manufacturer
GD/Convair
Mission
Spacecraft
Bus & Motor
CENTAUR PART, Unknown motor
Mass
Unknown
Launch date (UTC)
1963-11-27 (62 years ago)
Launch vehicle
Unknown
Launch site
Air Force Eastern Test Range (AFETR)
Object type
Payload
Rocket body
Debris
Shape & HBR
Unknown
Radar Cross Section
0.560 m², Medium (>0.1 m² and < 1m²)

Expand to show TLE details & history

TLE from 13 hours ago
0 ATLAS CENTAUR 2 DEB
1   701U 63047G   25186.19604317  .00000452  00000-0  12045-3 0  9997
2   701  30.0109 154.7696 0508214 217.9591 138.4114 13.82283485 62559
Epoch: 2025-07-05T04:42Z
TLE epoch observation values (Epoch: 2025-07-05T04:42:18.129Z)
Latitude
-0.00001°
Longitude
160.75648°
Altitude
1,240.873 km
Speed
7.094 km/s
True Right ascension
10h 19m 04s
True Declination
0° 00' 00"
Sunlit
Object was in daylight at epoch
Visualization orbit readout
Latitude
-27.39038°
Longitude
40.938°
Altitude
617.319 km
Speed
7.726 km/s
Apparent Right ascension
23h 00m 30s
Apparent Declination
-54° 22' 18"
Sunlit
Object is in daylight
Visualization observer readout
Local Sidereal Time
05:57:18
Azimuth
226.724° WSW
Elevation
-39.136°
Doppler factor
1
Orbital elements
Apogee altitude
1,332.484 km
Perigee altitude
586.658 km
Semi-major axis
7,337.708 km
Eccentricity
0.05082
Inclination
30.0109°
RAAN
154.7696°
Arg. of periapsis
217.9591°
True anomaly
Unknown
Mean anomaly
138.4114°
Eccentric anomaly
Unknown
Mean motion
3.45305 °/min
Orbital period
104.26 mins
BSTAR
0.00012045
Loading maneuver chart data...
Loading SW <> Apogee altitude chart data...

ATLAS CENTAUR 2 DEB Visibility forecast

Observer location: undefined°, undefined°

Span
Click to sort rows by Start time (UTC) header in descending order
Start Az.
Max El. time (UTC)
Max El. Az.
Max El.
End time (UTC)
End Az.
8 mins2025-07-05 23:55:50.397Z180.522° SSW2025-07-05 23:59:50.397Z151.923° SSE14.663°2025-07-06 00:03:50.397Z122.491° SE
12 mins2025-07-06 01:44:50.397Z214.324° SW2025-07-06 01:50:50.397Z159.247° S27.358°2025-07-06 01:56:50.397Z107.943° ESE
13 mins2025-07-06 03:34:50.397Z240.214° WSW2025-07-06 03:40:50.397Z185.429° SSW32.838°2025-07-06 03:47:50.397Z113.489° SE
10 mins2025-07-06 05:26:50.397Z245.991° WSW2025-07-06 05:31:50.397Z193.977° SSW28.303°2025-07-06 05:36:50.397Z138.978° SSE
5 mins2025-07-06 07:19:50.397Z227.764° WSW2025-07-06 07:21:50.397Z208.574° SW14.583°2025-07-06 07:24:50.397Z179.513° S
|